Regional Weather Roundup
Issued by NWS Bismarck, ND

Home | Current Version | Previous Version | Text Only | Print | Product List | Glossary On
Versions: 1 2 3 4 5 6 7 8 9 10 11 12 13 14 15 16 17 18 19 20 21 22 23 24 25 26 27 28 29 30 31 32 33 34 35 36 37 38 39 40 41 42 43 44 45 46 47 48 49 50
000
ASUS43 KBIS 210320
RWRBIS

NWR BROADCAST TEXT
NATIONAL WEATHER SERVICE BISMARCK ND
1000 PM CDT MON OCT 20 2014

NOTE: "FAIR" INDICATES FEW OR NO CLOUDS BELOW 12,000 FEET WITH NO
SIGNIFICANT WEATHER AND/OR OBSTRUCTIONS TO VISIBILITY.


CITY           SKY/WX    TMP DP  RH WIND       PRES   REMARKS
WILLISTON      CLEAR     59  42  53 SW3       29.82R
MINOT          CLEAR     50  34  54 SE8       29.89S
MINOT AFB      CLEAR     48  37  65 S9        29.88F
BISMARCK       CLEAR     49  34  56 E8        29.95R
DICKINSON      CLEAR     54  41  61 SE12      29.87S
GARRISON         N/A     51  38  60 SE7       29.90F
HETTINGER ARPT CLEAR     54  39  57 E8        29.90F
JAMESTOWN      CLEAR     51  40  65 SE10      30.00R
BEACH            N/A     55  41  58 S10       29.86S
CARRINGTON     FAIR      48  41  76 SE13      30.00S
CROSBY         FAIR      59  41  51 S18G25    29.80F
HARVEY         FAIR      48  37  66 SE9       29.95S
HAZEN          FAIR      55  36  47 SE6       29.90S
LINTON         FAIR      52  36  54 SE14      29.95S
MANDAN         FAIR      54  34  47 SE10      29.94F
OAKES            N/A     46  41  81 E10       30.02S
RUGBY          FAIR      54  37  54 SE12      29.94F
STANLEY        FAIR      50  41  71 CALM      29.87S
TIOGA          FAIR      55  41  58 S16G22    29.87S
$$

CITY           SKY/WX    TMP DP  RH WIND       PRES   REMARKS
GRAND FORKS    CLEAR     45  38  76 SE7       30.03S
GRAND FORKS AF CLEAR     44  40  86 SE6       30.04R
DEVILS LAKE    CLEAR     50  39  66 SE12      29.98R
FARGO          CLEAR     45  35  68 E6        30.03S
CANDO          FAIR      45  39  81 SE8       29.98R
CAVALIER       FAIR      45  37  76 SE6       30.03S
GRAFTON        FAIR      41  37  87 SE8       30.03F
GWINNER        CLEAR     45  37  76 SE5       30.05R
LANGDON        FAIR      46  39  76 SE15      30.00R
ROLLA          FAIR      46  39  76 S12       29.97S
WALHALLA       FAIR      45  43  93 SE8       30.02S
$$

CITY           SKY/WX    TMP DP  RH WIND       PRES   REMARKS
ABERDEEN       CLEAR     48  35  60 E8        30.02R
MOBRIDGE       CLEAR     58  35  42 SE13      29.92S
BUFFALO          N/A     58  42  55 E6        29.82F
RAPID CITY     CLEAR     57  43  59 SE6       29.90F
GLASGOW        CLEAR     52  38  58 E13       29.75S
SIDNEY         CLEAR     48  39  71 CALM      29.82S
WOLF POINT     CLEAR     51  40  65 CALM      29.77S
GLENDIVE       CLEAR     57  41  54 S5        29.82F
MILES CITY     CLEAR     59  37  44 S8        29.80F
BAKER          CLEAR     50  41  71 SE8       29.86F
$$

CITY           SKY/WX    TMP DP  RH WIND       PRES   REMARKS
BILLINGS       CLEAR     65  29  25 S8        29.83S
GREAT FALLS    CLEAR     59  33  37 S10       29.72F
REGINA         CLEAR     52  41  66 SE14      29.75F
ESTEVAN        CLEAR     50  41  71 SE9       29.81S
$$



USA.gov is the U.S. government's official web portal to all federal, state and local government web resources and services.